Louisville, KY

12:49 PM EST on February 08, 2016 (GMT -0500)
Louisville International-Standiford

Weather History for KSDF - November, 2012

Change the Weather History Date:

Friday, November 9, 2012

  Actual Average Record
Temperature  
Mean Temperature 49 °F 52 °F  
Max Temperature 65 °F 61 °F 77 °F (1975)
Min Temperature 33 °F 42 °F 20 °F (1991)
Degree Days  
Heating Degree Days 16 14  
Month to date heating degree days 173 111  
Since 1 July heating degree days 463 353  
Cooling Degree Days 0 0  
Month to date cooling degree days 0 0  
Year to date cooling degree days 1948 1609  
Moisture  
Dew Point 37 °F    
Average Humidity 68    
Maximum Humidity 96    
Minimum Humidity 40    
Precipitation  
Precipitation 0.00 in 0.11 in 1.38 in (1895)
Month to date precipitation 0.20 0.98  
Year to date precipitation 37.99 38.47  
Snow  
Snow 0.00 in 0.00 in 0.20 in (1892)
Month to date snowfall 0.0 0.0  
Since 1 July snowfall 0.0 0.1  
Since 1 September snowfall 0.0 0.1  
Snow Depth 0.00 in    
Sea Level Pressure  
Sea Level Pressure 30.19 in    
Wind  
Wind Speed 6 mph (SE)    
Max Wind Speed 16 mph    
Max Gust Speed 18 mph    
Visibility 8 miles    
Events      
T = Trace of Precipitation, MM = Missing Value Source: NWS Daily Summary

Daily Weather History Graph

Daily Weather History Graph

Search for Another Location

Airport or City:

Trip Planner

Search our weather history database for the weather conditions in past years. The results will help you decide how hot, cold, wet, or windy it might be!

Date:

Astronomy

Nov. 09, 2012 Rise Set
Actual Time 7:18 AM EST 5:35 PM EST
Civil Twilight 6:50 AM EST 6:02 PM EST
Nautical Twilight 6:18 AM EST 6:34 PM EST
Astronomical Twilight 5:47 AM EST 7:05 PM EST
Moon 2:20 AM EST (11/9) 2:44 PM EST (11/9)
Length of Visible Light 11h 12m
Length of Day
10h 17m
Waning Crescent, 23% of the Moon is Illuminated
Nov 9
Waning Crescent
Nov 13
New
Nov 20
First Quarter
Nov 28
Full
Dec 6
Last Quarter

Hourly Weather History & Observations

Time (EST) Temp. Windchill Dew Point Humidity Pressure Visibility Wind Dir Wind Speed Gust Speed Precip Events Conditions
12:56 AM 39.0 °F - 35.1 °F 86% 30.20 in 7.0 mi Calm Calm - N/A   Partly Cloudy
1:56 AM 37.9 °F - 34.0 °F 86% 30.19 in 6.0 mi Calm Calm - N/A   Partly Cloudy
2:56 AM 37.9 °F - 34.0 °F 86% 30.20 in 6.0 mi Calm Calm - N/A   Partly Cloudy
3:56 AM 36.0 °F 31.1 °F 34.0 °F 93% 30.21 in 6.0 mi SE 5.8 mph - N/A   Clear
4:56 AM 37.9 °F - 34.0 °F 86% 30.22 in 6.0 mi Calm Calm - N/A   Clear
5:56 AM 34.0 °F 31.0 °F 32.0 °F 92% 30.24 in 5.0 mi SE 3.5 mph - N/A   Clear
6:56 AM 34.0 °F 29.8 °F 30.9 °F 89% 30.25 in 4.0 mi ESE 4.6 mph - N/A   Clear
7:56 AM 35.1 °F 29.3 °F 33.1 °F 92% 30.26 in 3.0 mi SE 6.9 mph - N/A   Partly Cloudy
8:56 AM 39.9 °F 36.7 °F 36.0 °F 86% 30.27 in 4.0 mi SE 4.6 mph - N/A   Partly Cloudy
9:56 AM 46.0 °F 43.1 °F 39.0 °F 76% 30.26 in 5.0 mi SE 5.8 mph - N/A   Haze
10:56 AM 52.0 °F - 39.9 °F 63% 30.25 in 6.0 mi SE 5.8 mph - N/A   Haze
11:56 AM 57.0 °F - 39.9 °F 53% 30.22 in 9.0 mi SSE 6.9 mph - N/A   Partly Cloudy
12:56 PM 61.0 °F - 41.0 °F 48% 30.19 in 10.0 mi South 10.4 mph - N/A   Partly Cloudy
1:56 PM 62.1 °F - 41.0 °F 46% 30.17 in 10.0 mi SSE 10.4 mph - N/A   Scattered Clouds
2:56 PM 64.0 °F - 39.9 °F 41% 30.14 in 10.0 mi SSE 11.5 mph - N/A   Mostly Cloudy
3:56 PM 63.0 °F - 39.9 °F 43% 30.13 in 10.0 mi SSE 12.7 mph - N/A   Mostly Cloudy
4:56 PM 62.1 °F - 39.0 °F 43% 30.12 in 10.0 mi SSE 11.5 mph - N/A   Mostly Cloudy
5:56 PM 59.0 °F - 39.0 °F 48% 30.12 in 10.0 mi SSE 9.2 mph - N/A   Scattered Clouds
6:56 PM 57.9 °F - 39.0 °F 49% 30.13 in 10.0 mi South 6.9 mph - N/A   Scattered Clouds
7:56 PM 55.0 °F - 39.0 °F 55% 30.13 in 10.0 mi SE 5.8 mph - N/A   Scattered Clouds
8:56 PM 53.1 °F - 39.0 °F 59% 30.13 in 10.0 mi SE 5.8 mph - N/A   Scattered Clouds
9:56 PM 53.1 °F - 39.0 °F 59% 30.13 in 10.0 mi SE 5.8 mph - N/A   Clear
10:56 PM 51.1 °F - 37.9 °F 61% 30.14 in 10.0 mi ESE 5.8 mph - N/A   Partly Cloudy
11:56 PM 52.0 °F - 37.9 °F 59% 30.13 in 10.0 mi SE 6.9 mph - N/A   Partly Cloudy